Home > Time Zones > World Clock > Weather > Russia > Perm > Past weeks

Flag for Russia Weather past 2 weeks in Perm, Russia

Now
55 °F

Mostly cloudy.


Feels Like: 55 °F
Forecast: 43 / 56 °F
Wind: 3 mph from Northwest

Location: Perm'/Bolshoe Savino

Current Time: Aug 28, 2015 at 2:59:17 PM

Latest Report: Aug 28, 2015 at 2:30 PM


Visibility: N/A

Pressure: 29.89 "Hg

Humidity: 88%

Dew point: 52 °F

Location of PermLocation

Historic Weather in Perm — Graph

°F

Perm temperature yesterday

Maximum temperature yesterday: 57 °F (at 6:00 PM)
Minimum temperature yesterday: 46 °F (at 2:00 AM)
Average temperature yesterday: 52 °F

Past Weeks' High & Low Weather Summary

 TemperatureHumidityPressure
High75 °F (Aug 14, 1:00 PM)100% (Aug 14, 10:30 PM)30.15 "Hg (Aug 14, 10:30 PM)
Low34 °F (Aug 24, 4:30 AM)44% (Aug 14, 3:30 PM)29.45 "Hg (Aug 18, 7:30 AM)
Average54 °F85%29.86 "Hg
* Reported Aug 13 1:00 PM — Aug 28 1:30 PM, Perm, Weather by CustomWeather, © 2015

Note: Actual official high and low records may vary slightly from our data, if they occured in-between our weather recording intervals... More about our weather records

Advertising

Perm weather history for previous 24 hours

 ConditionsComfort  
Time TempWeatherWind HumidityBarometerVisibility
1:30 PM
Fri, Aug 28
55 °FMostly cloudy.No wind88%29.89 "HgN/A
1:00 PM55 °FMostly cloudy.No wind88%29.89 "HgN/A
12:30 PM55 °FMostly cloudy.1 mph82%29.89 "HgN/A
12:00 PM55 °FMostly cloudy.3 mph88%29.89 "HgN/A
11:30 AM55 °FMostly cloudy.3 mph94%29.89 "HgN/A
11:00 AM57 °FMostly cloudy.3 mph88%29.89 "HgN/A
10:30 AM55 °FMostly cloudy.3 mph94%29.89 "HgN/A
10:00 AM55 °FMostly cloudy.6 mph94%29.89 "HgN/A
9:30 AM55 °FMostly cloudy.6 mph94%29.89 "HgN/A
9:00 AM55 °FPartly sunny.1 mph94%29.89 "HgN/A
8:30 AM54 °FPartly sunny.3 mph100%29.89 "HgN/A
8:00 AM54 °FPassing clouds.6 mph100%29.89 "HgN/A
7:30 AM54 °FPassing clouds.3 mph100%29.86 "Hg5 mi
7:00 AM54 °FMostly cloudy.3 mph100%29.86 "HgN/A
6:30 AM54 °FMostly cloudy.6 mph100%29.86 "HgN/A
6:00 AM54 °FMostly cloudy.6 mph100%29.86 "HgN/A
5:30 AM54 °FPartly cloudy.6 mph100%29.86 "HgN/A
5:00 AM54 °FPartly cloudy.6 mph100%29.86 "HgN/A
4:30 AM54 °FPartly cloudy.6 mph94%29.86 "HgN/A
4:00 AM52 °FPartly cloudy.6 mph100%29.86 "HgN/A
3:30 AM54 °FPartly cloudy.6 mph94%29.86 "HgN/A
3:00 AM54 °FPartly cloudy.8 mph100%29.86 "HgN/A
2:30 AM54 °FPartly cloudy.6 mph100%29.86 "HgN/A
2:00 AM54 °FPartly cloudy.8 mph100%29.86 "HgN/A
1:30 AM54 °FPartly cloudy.6 mph94%29.86 "HgN/A
1:00 AM54 °FSprinkles. Passing clouds.8 mph100%29.86 "HgN/A
12:30 AM54 °FSprinkles. Passing clouds.3 mph100%29.89 "Hg6 mi
12:00 AM54 °FSprinkles. Mostly cloudy.8 mph100%29.89 "HgN/A
11:30 PM
Thu, Aug 27
54 °FSprinkles. Mostly cloudy.6 mph100%29.89 "HgN/A
11:00 PM52 °FSprinkles. Mostly cloudy.1 mph100%29.89 "HgN/A
10:30 PM52 °FSprinkles. Mostly cloudy.3 mph100%29.92 "HgN/A
10:00 PM54 °FMostly cloudy.3 mph94%29.92 "HgN/A
9:30 PM52 °FPartly sunny.3 mph94%29.92 "HgN/A
9:00 PM54 °FPartly sunny.1 mph94%29.92 "HgN/A
8:30 PM55 °FMostly cloudy.3 mph88%29.92 "HgN/A
8:00 PM55 °FMostly cloudy.3 mph88%29.92 "HgN/A
7:30 PM55 °FMostly cloudy.6 mph88%29.92 "HgN/A
7:00 PM55 °FMostly cloudy.6 mph88%29.92 "HgN/A
6:30 PM57 °FMostly cloudy.6 mph82%29.92 "HgN/A
6:00 PM57 °FMostly cloudy.8 mph82%29.95 "HgN/A
5:30 PM55 °FPartly sunny.6 mph82%29.95 "HgN/A
5:00 PM55 °FMostly cloudy.3 mph82%29.95 "HgN/A
4:30 PM55 °FMostly cloudy.3 mph82%29.95 "HgN/A
4:00 PM54 °FMostly cloudy.3 mph88%29.95 "HgN/A
3:30 PM54 °FMore clouds than sun.6 mph88%29.95 "HgN/A
3:00 PM55 °FMore clouds than sun.6 mph82%29.95 "HgN/A
2:30 PM55 °FMore clouds than sun.8 mph82%29.95 "HgN/A
2:00 PM55 °FBroken clouds.6 mph82%29.95 "HgN/A
Weather by CustomWeather, © 2015

See weather overviewHow to use our weather pages